Вернуться в каталог

STARLINK-35750

АктивенСвязьVLEO
NORAD 66209·PAYLOAD·🇺🇸 United States

Запущен Oct 28, 2025 с Vandenberg Space Force Base

Loading…

Ближайшие Пролёты (ближайшие 24 часа)

TLE

СвежийSource: CelesTrak SupGP

Эпоха: Sep 14, 2026, 14:18 UTC

1 66209C 25244D   26257.59631944 -.00029741  00000+0 -87832-3 0  2575
2 66209  53.1584  69.1058 0001124  92.7745 110.2699 15.34419419    12

Отслеживайте STARLINK-35750 в реальном времени с AllMySat

Download on the App Store